Location: Giant
(37.9905°N, 122.3572°W)
Time: 12:10:45
(UTC+00:00)

Daily predictions for brighter satellites

Satellite Brightness Start Highest point End
(mag) Time Altitude Azimuth Time Altitude Azimuth Time Altitude Azimuth
Cosmos 1340 4.2 12:03:32 10° NW 12:06:07 18° W 12:08:41 10° SW
PAYLOAD A 4.3 12:03:33 10° N 12:08:44 59° WNW 12:14:02 10° SSW
FENGYUN 3A 4.3 12:08:55 10° N 12:13:58 41° WNW 12:19:01 10° SW
OAO 3 Rocket 3.6 12:09:25 10° WSW 12:14:13 52° S 12:18:58 10° E
Cosmos 2219 3.3 12:08:41 10° SSW 12:14:21 88° ESE 12:20:01 10° NNE
Cosmos 1544 4.1 12:12:04 10° SSE 12:15:25 45° E 12:18:48 10° NNE
ISS -2.2 12:13:09 10° W 12:16:07 28° NNW 12:19:05 10° NNE
IRS-P3 4.3 12:13:30 10° N 12:18:43 58° WNW 12:23:54 10° SSW
Cosmos 1408 Rocket 4.4 12:15:37 10° SW 12:19:32 32° WNW 12:23:26 10° NNW
Cosmos 44 Rocket 4.5 12:15:26 10° S 12:20:00 40° ESE 12:24:29 10° NE
Sich 1 3.4 12:16:42 10° S 12:21:01 70° E 12:25:19 10° NNE
USA 215 3.9 12:15:39 10° NE 12:21:50 47° NW 12:28:02 10° WSW
Meteor 1-19 Rocket 4.4 12:15:59 10° N 12:22:00 81° W 12:28:01 10° S
